Zurück zum Katalog

NOAA 16 DEB

AktivSSO
NORAD 41422·DEBRIS·🇺🇸 United States

Gestartet Sep 21, 2000 von Vandenberg Space Force Base

Loading…

Nächste Überflüge (nächste 24 Stunden)

TLE

AktuellSource: Space-Track

Epoche: Sep 14, 2026, 10:32 UTC

1 41422U 00055LB  26257.43931892  .00002193  00000-0  89927-3 0  9997
2 41422  98.7045 334.9128 0012598 274.5865  85.3877 14.28092394546959

Verfolge NOAA 16 DEB in Echtzeit mit AllMySat

Download on the App Store